Medford, OR

1:30 PM PDT on March 25, 2017 (GMT -0700)
Rogue Valley International-Medford

Weather History for KMFR - September, 2014

Change the Weather History Date:

Thursday, September 4, 2014

  Actual Average Record
Temperature  
Mean Temperature 70 °F 70 °F  
Max Temperature 93 °F 87 °F 107 °F (1955)
Min Temperature 47 °F 53 °F 39 °F (1921)
Degree Days  
Heating Degree Days 0 1  
Month to date heating degree days 0 4  
Since 1 July heating degree days 0 14  
Cooling Degree Days 5 6  
Month to date cooling degree days 27 24  
Year to date cooling degree days 1041 731  
Growing Degree Days 20 (Base 50)    
Moisture  
Dew Point 35 °F    
Average Humidity 40    
Maximum Humidity 71    
Minimum Humidity 8    
Precipitation  
Precipitation 0.00 in 0.02 in 0.33 in (1937)
Month to date precipitation 0.00 0.06  
Year to date precipitation 11.39 10.20  
Snow  
Snow 0.00 in 0.00 in - ()
Month to date snowfall 0.0 0.0  
Since 1 July snowfall 0.0 0.0  
Snow Depth 0.00 in    
Sea Level Pressure  
Sea Level Pressure 29.87 in    
Wind  
Wind Speed 3 mph (NNW)    
Max Wind Speed 15 mph    
Max Gust Speed 19 mph    
Visibility 10 miles    
Events      
T = Trace of Precipitation, MM = Missing Value Source: NWS Daily Summary

Daily Weather History Graph

Daily Weather History Graph

Search for Another Location

Airport or City:

Trip Planner

Search our weather history database for the weather conditions in past years. The results will help you decide how hot, cold, wet, or windy it might be!

Date:

Astronomy

Sep. 04, 2014 Rise Set
Actual Time 6:39 AM PDT 7:40 PM PDT
Civil Twilight 6:11 AM PDT 8:08 PM PDT
Nautical Twilight 5:36 AM PDT 8:42 PM PDT
Astronomical Twilight 5:01 AM PDT 9:18 PM PDT
Moon 4:26 PM PDT (9/4) 1:32 AM PDT (9/4)
Length of Visible Light 13h 57m
Length of Day
13h 00m
Waxing Gibbous, 75% of the Moon is Illuminated
Sep 4
Waxing Gibbous
Sep 8
Full
Sep 15
Last Quarter
Sep 23
New
Oct 1
First Quarter

Hourly Weather History & Observations

Time (PDT) Temp. Dew Point Humidity Pressure Visibility Wind Dir Wind Speed Gust Speed Precip Events Conditions
12:53 AM 59.0 °F 41.0 °F 51% 29.93 in 10.0 mi Calm Calm - N/A   Clear
1:53 AM 57.0 °F 39.9 °F 53% 29.94 in 10.0 mi Calm Calm - N/A   Clear
2:53 AM 55.9 °F 39.9 °F 55% 29.94 in 10.0 mi SSE 3.5 mph - N/A   Clear
3:53 AM 52.0 °F 39.9 °F 63% 29.94 in 10.0 mi Calm Calm - N/A   Clear
4:53 AM 51.1 °F 39.9 °F 66% 29.94 in 10.0 mi Calm Calm - N/A   Clear
5:53 AM 50.0 °F 39.9 °F 68% 29.94 in 10.0 mi Calm Calm - N/A   Clear
6:53 AM 48.0 °F 39.0 °F 71% 29.96 in 10.0 mi Calm Calm - N/A   Clear
7:53 AM 51.1 °F 41.0 °F 68% 29.97 in 10.0 mi South 3.5 mph - N/A   Clear
8:53 AM 55.9 °F 39.9 °F 55% 29.96 in 10.0 mi Calm Calm - N/A   Clear
9:53 AM 61.0 °F 39.0 °F 44% 29.95 in 10.0 mi Calm Calm - N/A   Clear
10:53 AM 66.9 °F 37.9 °F 34% 29.92 in 10.0 mi Calm Calm - N/A   Clear
11:53 AM 73.9 °F 39.0 °F 28% 29.89 in 10.0 mi Variable 4.6 mph - N/A   Clear
12:53 PM 81.0 °F 30.9 °F 16% 29.86 in 10.0 mi Variable 3.5 mph - N/A   Clear
1:53 PM 84.9 °F 30.0 °F 14% 29.83 in 10.0 mi Variable 4.6 mph - N/A   Clear
2:53 PM 88.0 °F 28.0 °F 12% 29.80 in 10.0 mi NW 8.1 mph - N/A   Clear
3:53 PM 90.0 °F 23.0 °F 9% 29.78 in 10.0 mi Variable 6.9 mph - N/A   Clear
4:53 PM 91.0 °F 21.0 °F 8% 29.76 in 10.0 mi NNW 8.1 mph - N/A   Clear
5:53 PM 91.9 °F 21.9 °F 8% 29.75 in 10.0 mi Variable 5.8 mph - N/A   Clear
6:53 PM 90.0 °F 24.1 °F 9% 29.75 in 10.0 mi North 10.4 mph - N/A   Clear
7:53 PM 82.9 °F 37.0 °F 19% 29.78 in 10.0 mi Variable 3.5 mph - N/A   Clear
8:53 PM 77.0 °F 37.9 °F 24% 29.80 in 10.0 mi North 4.6 mph - N/A   Clear
9:53 PM 75.9 °F 39.9 °F 27% 29.82 in 10.0 mi NE 3.5 mph - N/A   Clear
10:53 PM 69.1 °F 37.0 °F 31% 29.83 in 10.0 mi South 4.6 mph - N/A   Clear
11:53 PM 66.9 °F 34.0 °F 30% 29.85 in 10.0 mi South 4.6 mph - N/A   Clear